STARLINK-1017, 44723

Orbit data source: Space-Track

STARLINK-1017, 44723 is a payload satellite owned by SpaceX/Seattle (US) in LEO that was launched on Mon, 11 Nov 2019 UTC via an FALCON 9 launch vehicle from the Air Force Eastern Test Range (AFETR). Payload-class satellites include a variety of spacecraft equipped with specific instruments for various scientific and technological missions. These include communications satellites like Starlink; space stations such as the ISS; scientific satellites like the Hubble; Earth observation satellites from companies like Planet Labs, Umbra, and HawkEye 360; GPS; miniature CubeSats for education and research; and military/defense satellites.

Loading next visibility...
Identifier
44723, 2019-074L
Orbit
LEO
Country
Flag of USUS
Related business
Manufacturer
SpaceX/Seattle
Mission
Partially operational Commercial Communications
Bus & Motor
STARLINK, Unknown motor
Mass
260 kg wet, ~248 kg dry
Launch date (UTC)
2019-11-11 (6 years ago)
Launch vehicle
FALCON 9
Launch site
Air Force Eastern Test Range (AFETR)
Object type
Payload
Rocket body
Debris
Shape & HBR
Box + 1 Pan, 10.1 m
Radar Cross Section
13.562 m², Large (>1 m²)

Expand to show TLE details & history
Last TLE update: 13 hours ago

TLE from 13 hours ago
0 STARLINK-1017
1 44723U 19074L   26072.28053371  .00035817  00000-0  14414-2 0  9997
2 44723  53.0547 154.8898 0001676  47.8079 312.3060 15.24576508349514
Epoch: 2026-03-13T06:43Z
TLE epoch observation values (Epoch: 2026-03-13T06:43:58.112Z)
Latitude
-0.00003°
Longitude
-117.02068°
Altitude
492.169 km
Speed
7.62 km/s
True Right ascension
10h 19m 33s
True Declination
0° 00' 00"
Sunlit
Object was in full shadow at epoch
Visualization orbit readout
Latitude
Unknown
Longitude
Unknown
Altitude
Unknown
Speed
Unknown
Apparent Right ascension
Unknown
Apparent Declination
Unknown
Sunlit
N/A
Visualization observer readout
Local Sidereal Time
23:53:39
Azimuth
Unknown
Elevation
Unknown
Doppler factor
Unknown
Orbital elements
Apogee altitude
493.482 km
Perigee altitude
491.179 km
Semi-major axis
6,870.467 km
Eccentricity
0.00017
Inclination
53.0547°
RAAN
154.8898°
Arg. of periapsis
47.8079°
True anomaly
312.29179°
Mean anomaly
312.306°
Eccentric anomaly
312.2989°
Mean motion
3.81122 °/min
Orbital period
94.46 mins
BSTAR
0.0014414
Loading maneuver chart data...
Computing Atmospheric mass density...

Documentation

Showing up to 5 results
|